LHA2539 LCLK-EDDP

Flight info

Callsign LHA2539
Flight time N/A
Altitude 32000
Route PHA DCT GENOS DCT PEDER DCT EVENO UM601 EXELA UN127 LMO UN128 PEREN UL863 EVIVI L863 OKANA DCT RAVAK DCT PARAK DCT PATAK DCT LALES DCT BEFRE DCT IVQOQ T951 YAWOY
Aircraft A319/M-SDE1E2FGIRWYZ/S

Departure

Time N/A
Airport Larnaca International Airport (LCLK)

Arrival

Time 2026-05-05 14:27
Airport Leipzig/Halle Airport (EDDP)
Time Latitude Longitude Altitude Speed Heading
2026-05-05 11:24 35.86540 29.88167 31967 ft 451 kts 287°
2026-05-05 11:25 35.87543 29.84513 31968 ft 451 kts 286°
2026-05-05 11:25 35.89514 29.77189 31968 ft 451 kts 286°
2026-05-05 11:26 35.91485 29.69880 31968 ft 451 kts 286°
2026-05-05 11:26 35.93644 29.62614 31967 ft 453 kts 291°
2026-05-05 11:27 35.96715 29.55823 31967 ft 457 kts 302°
2026-05-05 11:27 36.00767 29.49733 31967 ft 461 kts 312°
2026-05-05 11:28 36.05562 29.44521 31968 ft 464 kts 318°
2026-05-05 11:28 36.10591 29.39489 31967 ft 464 kts 318°
2026-05-05 11:29 36.15563 29.34477 31969 ft 464 kts 317°
2026-05-05 11:29 36.20549 29.29374 31968 ft 463 kts 317°
2026-05-05 11:30 36.25447 29.24226 31968 ft 463 kts 316°
2026-05-05 11:30 36.30327 29.19091 31968 ft 463 kts 316°
2026-05-05 11:31 36.35225 29.13940 31968 ft 464 kts 316°
2026-05-05 11:31 36.40136 29.08765 31968 ft 463 kts 316°
2026-05-05 11:32 36.45031 29.03600 31968 ft 463 kts 316°
2026-05-05 11:32 36.49908 28.98446 31969 ft 461 kts 316°
2026-05-05 11:33 36.54785 28.93281 31969 ft 459 kts 317°
2026-05-05 11:33 36.59616 28.88157 31969 ft 456 kts 317°
2026-05-05 11:34 36.64498 28.82969 31969 ft 453 kts 317°
2026-05-05 11:34 36.69260 28.77901 31968 ft 452 kts 317°
2026-05-05 11:35 36.74012 28.72865 31968 ft 451 kts 317°
2026-05-05 11:35 36.78807 28.67782 31968 ft 451 kts 317°
2026-05-05 11:36 36.83555 28.62738 31968 ft 451 kts 317°
2026-05-05 11:36 36.88326 28.57660 31968 ft 451 kts 317°
2026-05-05 11:37 36.93087 28.52584 31968 ft 451 kts 317°
2026-05-05 11:37 36.97842 28.47505 31969 ft 451 kts 317°
2026-05-05 11:38 37.02583 28.42437 31969 ft 451 kts 317°
2026-05-05 11:38 37.07329 28.37350 31969 ft 451 kts 317°
2026-05-05 11:39 37.12065 28.32232 31969 ft 451 kts 316°
2026-05-05 11:39 37.16803 28.27088 31972 ft 451 kts 316°
2026-05-05 11:40 37.21557 28.21966 31984 ft 451 kts 316°
2026-05-05 11:40 37.26310 28.16842 31998 ft 451 kts 316°
2026-05-05 11:41 37.31052 28.11714 32011 ft 451 kts 316°
2026-05-05 11:41 37.35773 28.06566 32018 ft 451 kts 316°
2026-05-05 11:42 37.40499 28.01402 32021 ft 451 kts 316°
2026-05-05 11:42 37.45196 27.96261 32022 ft 451 kts 316°
2026-05-05 11:43 37.49903 27.91102 32022 ft 451 kts 316°
2026-05-05 11:43 37.54625 27.85918 32022 ft 451 kts 316°
2026-05-05 11:44 37.59349 27.80723 32022 ft 451 kts 316°
2026-05-05 11:44 37.64055 27.75539 32022 ft 451 kts 316°
2026-05-05 11:45 37.68739 27.70371 32022 ft 451 kts 316°
2026-05-05 11:45 37.73447 27.65166 32022 ft 451 kts 316°
2026-05-05 11:46 37.78141 27.59968 32022 ft 450 kts 316°
2026-05-05 11:46 37.82861 27.54732 32026 ft 451 kts 316°
2026-05-05 11:47 37.87538 27.49534 32033 ft 451 kts 316°
2026-05-05 11:47 37.92267 27.44316 32040 ft 451 kts 316°
2026-05-05 11:48 37.99363 27.36535 32048 ft 451 kts 316°
2026-05-05 11:48 38.03049 27.32482 32051 ft 451 kts 316°
2026-05-05 11:49 38.07764 27.27288 32051 ft 451 kts 316°
2026-05-05 11:49 38.12470 27.22095 32051 ft 450 kts 316°
2026-05-05 11:50 38.17195 27.16868 32051 ft 450 kts 316°
2026-05-05 11:50 38.21938 27.11615 32051 ft 450 kts 316°
2026-05-05 11:51 38.26642 27.06394 32051 ft 450 kts 316°
2026-05-05 11:51 38.31355 27.01152 32051 ft 449 kts 316°
2026-05-05 11:52 38.36049 26.95962 32051 ft 449 kts 316°
2026-05-05 11:52 38.40731 26.90796 32051 ft 448 kts 316°
2026-05-05 11:53 38.45443 26.85586 32051 ft 448 kts 316°
2026-05-05 11:53 38.50133 26.80391 32054 ft 448 kts 316°
2026-05-05 11:54 38.54829 26.75179 32058 ft 448 kts 316°
2026-05-05 11:54 38.59510 26.69972 32063 ft 448 kts 316°
2026-05-05 11:55 38.64173 26.64777 32069 ft 448 kts 316°
2026-05-05 11:55 38.68872 26.59532 32074 ft 448 kts 316°
2026-05-05 11:56 38.73541 26.54312 32076 ft 448 kts 316°
2026-05-05 11:56 38.78203 26.49090 32077 ft 448 kts 316°
2026-05-05 11:57 38.82896 26.43821 32077 ft 448 kts 316°
2026-05-05 11:57 38.87645 26.38703 32077 ft 448 kts 318°
2026-05-05 11:58 38.92463 26.33622 32078 ft 449 kts 317°
2026-05-05 11:58 38.97269 26.28530 32077 ft 449 kts 317°
2026-05-05 11:59 39.02056 26.23438 32077 ft 450 kts 317°
2026-05-05 11:59 39.06880 26.18292 32077 ft 450 kts 317°
2026-05-05 12:00 39.11685 26.13156 32077 ft 451 kts 317°
2026-05-05 12:00 39.16475 26.08026 32077 ft 451 kts 317°
2026-05-05 12:01 39.21297 26.02853 32077 ft 451 kts 317°
2026-05-05 12:01 39.26104 25.97685 32077 ft 451 kts 317°
2026-05-05 12:02 39.30867 25.92527 32077 ft 450 kts 317°
2026-05-05 12:02 39.35595 25.87257 32077 ft 450 kts 316°
2026-05-05 12:03 39.40311 25.81982 32078 ft 450 kts 316°
2026-05-05 12:03 39.45034 25.76698 32081 ft 450 kts 316°
2026-05-05 12:04 39.49757 25.71408 32082 ft 450 kts 316°
2026-05-05 12:04 39.54482 25.66107 32082 ft 450 kts 316°
2026-05-05 12:05 39.59203 25.60802 32080 ft 450 kts 316°
2026-05-05 12:05 39.63897 25.55516 32079 ft 450 kts 316°
2026-05-05 12:06 39.68610 25.50200 32079 ft 450 kts 316°
2026-05-05 12:06 39.73320 25.44877 32079 ft 450 kts 316°
2026-05-05 12:07 39.78020 25.39556 32079 ft 450 kts 316°
2026-05-05 12:07 39.82718 25.34226 32079 ft 450 kts 316°
2026-05-05 12:08 39.87415 25.28872 32078 ft 449 kts 315°
2026-05-05 12:08 39.91822 25.23114 32079 ft 447 kts 309°
2026-05-05 12:09 39.95673 25.16855 32078 ft 445 kts 303°
2026-05-05 12:09 39.99265 25.10268 32078 ft 446 kts 302°
2026-05-05 12:10 40.02838 25.03653 32078 ft 448 kts 302°
2026-05-05 12:10 40.06419 24.97016 32078 ft 450 kts 301°
2026-05-05 12:11 40.10019 24.90331 32078 ft 452 kts 301°
2026-05-05 12:11 40.13622 24.83630 32079 ft 452 kts 301°
2026-05-05 12:12 40.17229 24.76909 32079 ft 452 kts 301°
2026-05-05 12:12 40.20828 24.70192 32078 ft 452 kts 301°
2026-05-05 12:13 40.24407 24.63498 32072 ft 451 kts 301°
2026-05-05 12:13 40.27989 24.56783 32065 ft 452 kts 301°
2026-05-05 12:14 40.31578 24.50041 32058 ft 452 kts 301°
2026-05-05 12:14 40.35174 24.43271 32055 ft 452 kts 301°
2026-05-05 12:15 40.38733 24.36558 32053 ft 452 kts 301°
2026-05-05 12:15 40.42331 24.29755 32053 ft 452 kts 301°
2026-05-05 12:16 40.45896 24.23000 32052 ft 452 kts 301°
2026-05-05 12:16 40.49453 24.16249 32052 ft 452 kts 301°
2026-05-05 12:17 40.53019 24.09461 32052 ft 452 kts 301°
2026-05-05 12:17 40.56824 24.02892 32052 ft 455 kts 308°
2026-05-05 12:18 40.61419 23.97114 32052 ft 461 kts 317°
2026-05-05 12:18 40.66707 23.92393 32052 ft 466 kts 327°
2026-05-05 12:19 40.72527 23.88579 32053 ft 468 kts 331°
2026-05-05 12:19 40.78388 23.84940 32053 ft 468 kts 331°
2026-05-05 12:20 40.84250 23.81270 32053 ft 468 kts 331°
2026-05-05 12:20 40.90103 23.77580 32052 ft 468 kts 331°
2026-05-05 12:21 40.95946 23.73883 32052 ft 468 kts 331°
2026-05-05 12:21 41.01813 23.70162 32053 ft 466 kts 331°
2026-05-05 12:22 41.07613 23.66476 32053 ft 462 kts 331°
2026-05-05 12:22 41.13364 23.62815 32052 ft 460 kts 331°
2026-05-05 12:23 41.19089 23.59164 32052 ft 459 kts 331°
2026-05-05 12:23 41.24732 23.55556 32051 ft 459 kts 331°
2026-05-05 12:24 41.30482 23.51863 32041 ft 459 kts 331°
2026-05-05 12:24 41.36226 23.48167 32031 ft 459 kts 331°
2026-05-05 12:25 41.41920 23.44489 32027 ft 459 kts 331°
2026-05-05 12:25 41.47659 23.40752 32025 ft 459 kts 331°
2026-05-05 12:26 41.53388 23.37009 32032 ft 460 kts 330°
2026-05-05 12:26 41.59114 23.33264 32047 ft 459 kts 330°
2026-05-05 12:27 41.64835 23.29518 32061 ft 459 kts 330°
2026-05-05 12:27 41.70536 23.25778 32070 ft 459 kts 330°
2026-05-05 12:28 41.76217 23.22043 32073 ft 458 kts 330°
2026-05-05 12:28 41.81956 23.18263 32076 ft 458 kts 330°
2026-05-05 12:29 41.87669 23.14492 32077 ft 459 kts 330°
2026-05-05 12:29 41.93340 23.10740 32077 ft 458 kts 330°
2026-05-05 12:30 41.99083 23.06934 32077 ft 459 kts 330°
2026-05-05 12:30 42.04782 23.03149 32077 ft 459 kts 330°
2026-05-05 12:31 42.10476 22.99359 32078 ft 458 kts 330°
2026-05-05 12:31 42.16157 22.95571 32077 ft 456 kts 330°
2026-05-05 12:32 42.21806 22.91800 32077 ft 455 kts 331°
2026-05-05 12:32 42.27452 22.88021 32077 ft 453 kts 331°
2026-05-05 12:33 42.33049 22.84267 32077 ft 452 kts 331°
2026-05-05 12:33 42.38667 22.80488 32076 ft 451 kts 331°
2026-05-05 12:34 42.44273 22.76715 32077 ft 451 kts 331°
2026-05-05 12:34 42.49871 22.72939 32077 ft 451 kts 332°
2026-05-05 12:35 42.55466 22.69155 32077 ft 451 kts 331°
2026-05-05 12:35 42.61069 22.65357 32076 ft 451 kts 331°
2026-05-05 12:36 42.66661 22.61558 32075 ft 451 kts 331°
2026-05-05 12:36 42.72249 22.57757 32076 ft 451 kts 331°
2026-05-05 12:37 42.77861 22.53933 32075 ft 451 kts 332°
2026-05-05 12:37 42.83367 22.49986 32062 ft 450 kts 328°
2026-05-05 12:38 42.88586 22.45303 32045 ft 448 kts 322°
2026-05-05 12:38 42.93534 22.40284 32034 ft 444 kts 323°
2026-05-05 12:39 42.98463 22.35266 32027 ft 444 kts 323°
2026-05-05 12:39 43.03393 22.30243 32024 ft 445 kts 322°
2026-05-05 12:40 43.08326 22.25209 32024 ft 444 kts 322°
2026-05-05 12:40 43.13279 22.20145 32025 ft 445 kts 322°
2026-05-05 12:41 43.18217 22.15090 32023 ft 445 kts 322°
2026-05-05 12:41 43.23141 22.10033 32024 ft 445 kts 322°
2026-05-05 12:42 43.28078 22.04954 32022 ft 445 kts 322°
2026-05-05 12:42 43.33027 21.99851 32024 ft 445 kts 322°
2026-05-05 12:43 43.37949 21.94766 32024 ft 445 kts 322°
2026-05-05 12:43 43.42896 21.89643 32025 ft 445 kts 322°
2026-05-05 12:44 43.47787 21.84566 32024 ft 445 kts 322°
2026-05-05 12:44 43.52721 21.79435 32025 ft 445 kts 322°
2026-05-05 12:45 43.57655 21.74294 32024 ft 445 kts 322°
2026-05-05 12:45 43.62574 21.69155 32022 ft 445 kts 322°
2026-05-05 12:46 43.67637 21.64316 32024 ft 445 kts 328°
2026-05-05 12:46 43.73065 21.60204 32024 ft 446 kts 334°
2026-05-05 12:47 43.78699 21.56758 32023 ft 446 kts 336°
2026-05-05 12:47 43.84423 21.53378 32024 ft 447 kts 336°
2026-05-05 12:48 43.90087 21.50023 32025 ft 446 kts 336°
2026-05-05 12:48 43.95802 21.46621 32023 ft 447 kts 336°
2026-05-05 12:49 44.01453 21.43249 32023 ft 446 kts 336°
2026-05-05 12:49 44.07149 21.39842 32023 ft 446 kts 336°
2026-05-05 12:50 44.12848 21.36427 32023 ft 446 kts 336°
2026-05-05 12:50 44.18540 21.33006 32023 ft 446 kts 335°
2026-05-05 12:51 44.24215 21.29589 32021 ft 446 kts 335°
2026-05-05 12:51 44.29904 21.26155 32017 ft 446 kts 335°
2026-05-05 12:52 44.35554 21.22740 32012 ft 446 kts 335°
2026-05-05 12:52 44.41237 21.19296 32010 ft 446 kts 335°
2026-05-05 12:53 44.46939 21.15834 32006 ft 446 kts 335°
2026-05-05 12:53 44.52608 21.12385 32001 ft 446 kts 335°
2026-05-05 12:54 44.61098 21.07205 31999 ft 443 kts 335°
2026-05-05 12:55 44.66692 21.03781 31999 ft 440 kts 335°
2026-05-05 12:55 44.72253 21.00370 31999 ft 437 kts 336°
2026-05-05 12:56 44.77772 20.96979 31999 ft 433 kts 336°
2026-05-05 12:56 44.83270 20.93591 31998 ft 431 kts 336°
2026-05-05 12:57 44.88727 20.90223 31999 ft 428 kts 337°
2026-05-05 12:57 44.94131 20.86882 31998 ft 426 kts 338°
2026-05-05 12:58 44.99564 20.83523 31998 ft 425 kts 337°
2026-05-05 12:58 45.04933 20.80194 31998 ft 425 kts 337°
2026-05-05 12:59 45.10339 20.76833 31999 ft 424 kts 337°
2026-05-05 12:59 45.15709 20.73487 31998 ft 423 kts 337°
2026-05-05 13:00 45.23761 20.68454 31998 ft 423 kts 337°
2026-05-05 13:01 45.34484 20.61729 31998 ft 423 kts 337°
2026-05-05 13:01 45.39850 20.58353 31998 ft 423 kts 337°
2026-05-05 13:02 45.45213 20.54972 31998 ft 423 kts 337°
2026-05-05 13:02 45.50512 20.51624 31998 ft 423 kts 337°
2026-05-05 13:03 45.55577 20.48418 31998 ft 423 kts 337°
2026-05-05 13:03 45.60961 20.45003 31998 ft 423 kts 337°
2026-05-05 13:04 45.66292 20.41614 31998 ft 423 kts 337°
2026-05-05 13:04 45.71644 20.38205 31998 ft 423 kts 337°
2026-05-05 13:05 45.77022 20.34771 31998 ft 423 kts 336°
2026-05-05 13:05 45.82394 20.31334 31998 ft 423 kts 336°
2026-05-05 13:06 45.87756 20.27898 31998 ft 423 kts 336°
2026-05-05 13:06 45.93075 20.24481 31998 ft 423 kts 336°
2026-05-05 13:07 45.98461 20.21014 31996 ft 423 kts 336°
2026-05-05 13:07 46.03812 20.17562 31991 ft 423 kts 336°
2026-05-05 13:08 46.09140 20.14118 31983 ft 423 kts 336°
2026-05-05 13:08 46.14518 20.10645 31975 ft 423 kts 337°
2026-05-05 13:09 46.19992 20.07654 31972 ft 423 kts 341°
2026-05-05 13:09 46.25557 20.04923 31970 ft 423 kts 341°
2026-05-05 13:10 46.31086 20.02218 31969 ft 423 kts 341°
2026-05-05 13:10 46.36633 19.99497 31969 ft 423 kts 341°
2026-05-05 13:11 46.42175 19.96771 31969 ft 423 kts 341°
2026-05-05 13:11 46.47739 19.94028 31969 ft 423 kts 341°
2026-05-05 13:12 46.53298 19.91281 31969 ft 423 kts 341°
2026-05-05 13:12 46.58849 19.88532 31969 ft 423 kts 341°
2026-05-05 13:13 46.64402 19.85776 31969 ft 423 kts 341°
2026-05-05 13:13 46.69928 19.83028 31969 ft 423 kts 341°
2026-05-05 13:14 46.75491 19.80255 31969 ft 423 kts 341°
2026-05-05 13:14 46.81030 19.77488 31969 ft 423 kts 341°
2026-05-05 13:15 46.86575 19.74711 31969 ft 423 kts 341°
2026-05-05 13:15 46.92116 19.71935 31969 ft 423 kts 341°
2026-05-05 13:16 46.97656 19.69155 31969 ft 423 kts 341°
2026-05-05 13:16 47.03209 19.66359 31969 ft 424 kts 340°
2026-05-05 13:17 47.08765 19.63550 31969 ft 424 kts 340°
2026-05-05 13:17 47.14350 19.60720 31969 ft 424 kts 340°
2026-05-05 13:18 47.19910 19.57897 31966 ft 425 kts 340°
2026-05-05 13:18 47.25445 19.55081 31961 ft 425 kts 340°
2026-05-05 13:19 47.31041 19.52230 31957 ft 424 kts 340°
2026-05-05 13:19 47.36582 19.49401 31953 ft 424 kts 340°
2026-05-05 13:20 47.42122 19.46564 31949 ft 425 kts 340°
2026-05-05 13:20 47.47718 19.43693 31946 ft 425 kts 340°
2026-05-05 13:21 47.53245 19.40852 31943 ft 425 kts 340°
2026-05-05 13:21 47.58811 19.37984 31942 ft 425 kts 340°
2026-05-05 13:22 47.64377 19.35111 31943 ft 424 kts 340°
2026-05-05 13:22 47.69957 19.32220 31942 ft 425 kts 339°
2026-05-05 13:23 47.75536 19.29327 31943 ft 425 kts 339°
2026-05-05 13:23 47.81059 19.26456 31943 ft 424 kts 339°
2026-05-05 13:24 47.86613 19.23564 31942 ft 425 kts 339°
2026-05-05 13:24 47.92194 19.20649 31942 ft 424 kts 339°
2026-05-05 13:25 47.97733 19.17747 31943 ft 423 kts 339°
2026-05-05 13:25 48.03070 19.14168 31944 ft 419 kts 330°
2026-05-05 13:26 48.07881 19.09533 31945 ft 414 kts 323°
2026-05-05 13:26 48.12174 19.03887 31947 ft 408 kts 316°
2026-05-05 13:27 48.15906 18.97613 31947 ft 402 kts 313°
2026-05-05 13:27 48.19511 18.91304 31944 ft 397 kts 313°
2026-05-05 13:28 48.23077 18.85043 31941 ft 397 kts 313°
2026-05-05 13:28 48.26643 18.78758 31933 ft 397 kts 313°
2026-05-05 13:29 48.30226 18.72431 31921 ft 397 kts 313°
2026-05-05 13:29 48.33786 18.66124 31904 ft 397 kts 313°
2026-05-05 13:30 48.37326 18.59840 31889 ft 397 kts 313°
2026-05-05 13:30 48.40898 18.53484 31879 ft 397 kts 313°
2026-05-05 13:31 48.44435 18.47175 31871 ft 397 kts 313°
2026-05-05 13:31 48.47982 18.40832 31864 ft 397 kts 313°
2026-05-05 13:32 48.51522 18.34487 31862 ft 397 kts 312°
2026-05-05 13:32 48.55076 18.28102 31862 ft 397 kts 312°
2026-05-05 13:33 48.58625 18.21710 31861 ft 397 kts 312°
2026-05-05 13:33 48.62165 18.15321 31860 ft 397 kts 312°
2026-05-05 13:34 48.65697 18.08930 31860 ft 397 kts 312°
2026-05-05 13:34 48.69225 18.02533 31860 ft 397 kts 312°
2026-05-05 13:35 48.72736 17.96149 31860 ft 397 kts 312°
2026-05-05 13:35 48.76274 17.89701 31860 ft 397 kts 312°
2026-05-05 13:36 48.79785 17.83286 31859 ft 397 kts 312°
2026-05-05 13:36 48.83291 17.76865 31859 ft 397 kts 312°
2026-05-05 13:37 48.86949 17.70638 31855 ft 396 kts 316°
2026-05-05 13:37 48.90936 17.64910 31848 ft 396 kts 319°
2026-05-05 13:38 48.95011 17.59309 31841 ft 396 kts 319°
2026-05-05 13:38 48.99102 17.53685 31835 ft 397 kts 319°
2026-05-05 13:39 49.03199 17.48043 31832 ft 401 kts 319°
2026-05-05 13:39 49.07338 17.42332 31831 ft 404 kts 318°
2026-05-05 13:40 49.11523 17.36540 31833 ft 408 kts 318°
2026-05-05 13:40 49.15714 17.30721 31833 ft 410 kts 317°
2026-05-05 13:41 49.19922 17.24868 31833 ft 410 kts 317°
2026-05-05 13:41 49.24151 17.18972 31833 ft 410 kts 317°
2026-05-05 13:42 49.28352 17.13103 31833 ft 410 kts 317°
2026-05-05 13:42 49.32542 17.07234 31833 ft 410 kts 317°
2026-05-05 13:43 49.36722 17.01367 31835 ft 409 kts 317°
2026-05-05 13:43 49.40863 16.95544 31837 ft 400 kts 317°
2026-05-05 13:44 49.44917 16.89827 31837 ft 391 kts 317°
2026-05-05 13:44 49.48860 16.84253 31837 ft 382 kts 316°
2026-05-05 13:45 49.52719 16.78786 31836 ft 373 kts 316°
2026-05-05 13:45 49.56501 16.73411 31834 ft 371 kts 316°
2026-05-05 13:46 49.60286 16.68022 31833 ft 371 kts 316°
2026-05-05 13:46 49.64050 16.62651 31833 ft 371 kts 316°
2026-05-05 13:47 49.67815 16.57265 31833 ft 371 kts 316°
2026-05-05 13:47 49.71589 16.51859 31833 ft 371 kts 316°
2026-05-05 13:48 49.75378 16.46418 31833 ft 371 kts 316°
2026-05-05 13:48 49.79130 16.41019 31832 ft 371 kts 316°
2026-05-05 13:49 49.82888 16.35595 31829 ft 371 kts 316°
2026-05-05 13:49 49.86664 16.30137 31826 ft 371 kts 316°
2026-05-05 13:50 49.90422 16.24694 31818 ft 371 kts 316°
2026-05-05 13:50 49.94176 16.19244 31811 ft 371 kts 316°
2026-05-05 13:51 49.97948 16.13752 31807 ft 371 kts 316°
2026-05-05 13:51 50.01677 16.08314 31805 ft 371 kts 316°
2026-05-05 13:52 50.05447 16.02802 31805 ft 371 kts 316°
2026-05-05 13:52 50.09178 15.97335 31805 ft 371 kts 316°
2026-05-05 13:53 50.12951 15.91793 31806 ft 371 kts 316°
2026-05-05 13:53 50.16686 15.86298 31805 ft 371 kts 316°
2026-05-05 13:54 50.20436 15.80764 31805 ft 371 kts 316°
2026-05-05 13:54 50.24187 15.75218 31805 ft 371 kts 316°
2026-05-05 13:55 50.27928 15.69673 31805 ft 371 kts 316°
2026-05-05 13:55 50.31644 15.64156 31805 ft 371 kts 316°
2026-05-05 13:56 50.35390 15.58578 31805 ft 371 kts 316°
2026-05-05 13:56 50.39098 15.53045 31805 ft 371 kts 316°
2026-05-05 13:57 50.42827 15.47470 31805 ft 371 kts 316°
2026-05-05 13:57 50.46556 15.41881 31805 ft 371 kts 316°
2026-05-05 13:58 50.50271 15.36299 31805 ft 371 kts 316°
2026-05-05 13:58 50.53064 15.32093 31806 ft 371 kts 315°
2026-05-05 13:59 50.56775 15.26494 31697 ft 369 kts 315°
2026-05-05 13:59 50.58606 15.23732 31445 ft 366 kts 315°
2026-05-05 14:00 50.62243 15.18234 30945 ft 363 kts 314°
2026-05-05 14:00 50.63467 15.16380 30775 ft 362 kts 314°
2026-05-05 14:00 50.65866 15.12740 30443 ft 362 kts 314°
2026-05-05 14:00 50.67692 15.09966 30190 ft 364 kts 314°
2026-05-05 14:01 50.69511 15.07199 29939 ft 366 kts 314°
2026-05-05 14:01 50.71344 15.04408 29688 ft 369 kts 314°
2026-05-05 14:01 50.73192 15.01592 29436 ft 371 kts 313°
2026-05-05 14:01 50.75041 14.98767 29185 ft 373 kts 313°
2026-05-05 14:02 50.76893 14.95937 28935 ft 376 kts 313°
2026-05-05 14:02 50.78764 14.93072 28684 ft 378 kts 313°
2026-05-05 14:02 50.80671 14.90151 28429 ft 379 kts 313°
2026-05-05 14:02 50.82558 14.87256 28177 ft 379 kts 312°
2026-05-05 14:03 50.84440 14.84367 27927 ft 379 kts 312°
2026-05-05 14:03 50.86323 14.81469 27675 ft 378 kts 312°
2026-05-05 14:03 50.88206 14.78570 27424 ft 378 kts 312°
2026-05-05 14:03 50.90064 14.75638 27170 ft 376 kts 309°
2026-05-05 14:04 50.91707 14.72488 26921 ft 374 kts 303°
2026-05-05 14:04 50.93128 14.69063 26669 ft 372 kts 298°
2026-05-05 14:04 50.94304 14.65431 26416 ft 370 kts 293°
2026-05-05 14:04 50.95224 14.61641 26165 ft 369 kts 287°
2026-05-05 14:05 50.95966 14.57754 25915 ft 368 kts 286°
2026-05-05 14:05 50.96674 14.53865 25664 ft 367 kts 285°
2026-05-05 14:05 50.97372 14.49981 25413 ft 366 kts 285°
2026-05-05 14:05 50.98067 14.46094 25161 ft 365 kts 285°
2026-05-05 14:06 50.98729 14.42382 24920 ft 365 kts 285°
2026-05-05 14:06 50.99416 14.38511 24668 ft 364 kts 285°
2026-05-05 14:06 51.00066 14.34842 24396 ft 363 kts 284°
2026-05-05 14:06 51.00665 14.31450 24102 ft 362 kts 284°
2026-05-05 14:07 51.01347 14.27588 23654 ft 360 kts 284°
2026-05-05 14:07 51.02011 14.23819 23122 ft 357 kts 283°
2026-05-05 14:07 51.02679 14.20018 22538 ft 355 kts 283°
2026-05-05 14:07 51.03331 14.16292 21946 ft 353 kts 283°
2026-05-05 14:08 51.03981 14.12575 21349 ft 352 kts 283°
2026-05-05 14:08 51.04636 14.08821 20744 ft 351 kts 283°
2026-05-05 14:08 51.05277 14.05136 20153 ft 350 kts 283°
2026-05-05 14:08 51.05922 14.01412 19561 ft 349 kts 282°
2026-05-05 14:09 51.06566 13.97693 18977 ft 349 kts 282°
2026-05-05 14:09 51.07211 13.93960 18396 ft 348 kts 282°
2026-05-05 14:09 51.07843 13.90291 17830 ft 348 kts 282°
2026-05-05 14:09 51.08488 13.86546 17260 ft 348 kts 282°
2026-05-05 14:10 51.09116 13.82884 16710 ft 347 kts 282°
2026-05-05 14:10 51.09754 13.79162 16154 ft 347 kts 282°
2026-05-05 14:10 51.10196 13.76576 15770 ft 347 kts 282°
2026-05-05 14:10 51.10232 13.76369 15740 ft 347 kts 282°
2026-05-05 14:11 51.10269 13.76146 15707 ft 347 kts 282°
2026-05-05 14:11 51.11280 13.70225 14845 ft 346 kts 283°
2026-05-05 14:11 51.11906 13.66543 14316 ft 345 kts 283°
2026-05-05 14:12 51.12531 13.62869 13794 ft 344 kts 283°
2026-05-05 14:12 51.13150 13.59215 13281 ft 343 kts 283°
2026-05-05 14:12 51.13768 13.55561 12771 ft 342 kts 283°
2026-05-05 14:12 51.14381 13.51936 12270 ft 340 kts 283°
2026-05-05 14:13 51.14991 13.48312 11770 ft 338 kts 283°
2026-05-05 14:13 51.15594 13.44720 11284 ft 336 kts 283°
2026-05-05 14:13 51.16194 13.41136 10798 ft 333 kts 284°
2026-05-05 14:13 51.16781 13.37611 10368 ft 328 kts 283°
2026-05-05 14:14 51.17214 13.34088 10034 ft 318 kts 277°
2026-05-05 14:14 51.17406 13.30668 9840 ft 305 kts 271°
2026-05-05 14:14 51.17427 13.27354 9838 ft 287 kts 269°
2026-05-05 14:14 51.17418 13.24249 9840 ft 277 kts 269°
2026-05-05 14:15 51.17404 13.21194 9842 ft 276 kts 269°
2026-05-05 14:15 51.17390 13.18159 9845 ft 276 kts 269°
2026-05-05 14:15 51.17377 13.15109 9848 ft 275 kts 269°
2026-05-05 14:15 51.17492 13.12081 9832 ft 276 kts 283°
2026-05-05 14:16 51.18444 13.09424 9708 ft 282 kts 313°
2026-05-05 14:16 51.20029 13.07529 9525 ft 284 kts 323°
2026-05-05 14:16 51.21680 13.05832 9213 ft 283 kts 324°
2026-05-05 14:16 51.23320 13.04133 8887 ft 281 kts 323°
2026-05-05 14:17 51.24949 13.02409 8555 ft 280 kts 323°
2026-05-05 14:17 51.26545 13.00691 8216 ft 278 kts 322°
2026-05-05 14:17 51.28133 12.98960 7875 ft 276 kts 322°
2026-05-05 14:17 51.29707 12.97233 7537 ft 274 kts 322°
2026-05-05 14:18 51.31278 12.95503 7192 ft 272 kts 322°
2026-05-05 14:18 51.32829 12.93789 6850 ft 270 kts 323°
2026-05-05 14:18 51.34364 12.92088 6516 ft 268 kts 323°
2026-05-05 14:18 51.35896 12.90390 6178 ft 266 kts 323°
2026-05-05 14:19 51.37391 12.88732 5847 ft 264 kts 324°
2026-05-05 14:19 51.38897 12.87059 5511 ft 263 kts 324°
2026-05-05 14:19 51.40395 12.85391 5175 ft 261 kts 324°
2026-05-05 14:19 51.41873 12.83748 4840 ft 260 kts 325°
2026-05-05 14:20 51.43350 12.82101 4504 ft 258 kts 325°
2026-05-05 14:20 51.44761 12.80321 4143 ft 256 kts 310°
2026-05-05 14:20 51.45522 12.77815 3996 ft 257 kts 282°
2026-05-05 14:20 51.45553 12.74908 4000 ft 262 kts 269°
2026-05-05 14:21 51.45417 12.72015 3989 ft 267 kts 266°
2026-05-05 14:21 51.45271 12.69044 3987 ft 258 kts 266°
2026-05-05 14:21 51.45133 12.66250 3987 ft 243 kts 267°
2026-05-05 14:21 51.45008 12.63646 3994 ft 228 kts 269°
2026-05-05 14:22 51.44900 12.61196 3990 ft 214 kts 269°
2026-05-05 14:22 51.44803 12.58868 3992 ft 206 kts 269°
2026-05-05 14:22 51.44746 12.56582 3980 ft 204 kts 270°
2026-05-05 14:22 51.44690 12.54322 3809 ft 202 kts 270°
2026-05-05 14:23 51.44606 12.52075 3539 ft 203 kts 269°
2026-05-05 14:23 51.44502 12.49810 3269 ft 203 kts 269°
2026-05-05 14:23 51.44389 12.47576 3003 ft 203 kts 268°
2026-05-05 14:23 51.44274 12.45356 2805 ft 193 kts 268°
2026-05-05 14:24 51.44167 12.43287 2529 ft 182 kts 269°
2026-05-05 14:24 51.44068 12.41312 2259 ft 174 kts 268°
2026-05-05 14:24 51.43975 12.39410 2010 ft 167 kts 266°
2026-05-05 14:24 51.43898 12.37827 1819 ft 162 kts 267°
2026-05-05 14:25 51.43809 12.36006 1647 ft 162 kts 267°
2026-05-05 14:25 51.43722 12.34226 1425 ft 160 kts 266°
2026-05-05 14:25 51.43636 12.32442 1206 ft 160 kts 266°
2026-05-05 14:25 51.43551 12.30671 991 ft 157 kts 266°
2026-05-05 14:26 51.43470 12.29006 783 ft 144 kts 268°
2026-05-05 14:26 51.43396 12.27426 599 ft 141 kts 267°
2026-05-05 14:26 51.43332 12.25927 469 ft 126 kts 268°
2026-05-05 14:26 51.43276 12.24691 469 ft 78 kts 264°
2026-05-05 14:27 51.43246 12.24225 469 ft 18 kts 263°
2026-05-05 14:27 51.43172 12.24174 469 ft 14 kts 178°
2026-05-05 14:27 51.43063 12.24184 469 ft 19 kts 175°
2026-05-05 14:27 51.42935 12.24153 469 ft 19 kts 212°
2026-05-05 14:28 51.42813 12.24141 468 ft 13 kts 174°
2026-05-05 14:28 51.42742 12.24118 469 ft 11 kts 248°
2026-05-05 14:28 51.42734 12.24028 469 ft 6 kts 264°
2026-05-05 14:28 51.42732 12.23994 469 ft 0 kts 264°